South Pass, WY

12:10 PM MDT on March 27, 2017 (GMT -0600)
South Pass

Weather History for KFWZ - August, 2013

Change the Weather History Date:

Wednesday, August 7, 2013

  Actual Average (KLND) Record (KLND)
Temperature  
Mean Temperature 65 °F -  
Max Temperature 77 °F 86 °F 98 °F (1990)
Min Temperature 53 °F 56 °F 44 °F (1917)
Growing Degree Days 15 (Base 50)    
Moisture  
Dew Point 32 °F    
Average Humidity 34    
Maximum Humidity 58    
Minimum Humidity 12    
Precipitation  
Precipitation 0.00 in - - ()
Sea Level Pressure  
Sea Level Pressure 30.22 in    
Wind  
Wind Speed 11 mph (North)    
Max Wind Speed 21 mph    
Max Gust Speed 26 mph    
Visibility 10 miles    
Events      
Averages and records for this station are not official NWS values.
T = Trace of Precipitation, MM = Missing Value Source: NWS Daily Summary

Daily Weather History Graph

Daily Weather History Graph

Search for Another Location

Airport or City:

Trip Planner

Search our weather history database for the weather conditions in past years. The results will help you decide how hot, cold, wet, or windy it might be!

Date:

Astronomy

Aug. 07, 2013 Rise Set
Actual Time 6:13 AM MDT 8:27 PM MDT
Civil Twilight 5:42 AM MDT 8:58 PM MDT
Nautical Twilight 5:04 AM MDT 9:36 PM MDT
Astronomical Twilight 4:21 AM MDT 10:18 PM MDT
Moon 7:07 AM MDT (8/7) 8:32 PM MDT (8/7)
Length of Visible Light 15h 15m
Length of Day
14h 13m
New Moon, 1% of the Moon is Illuminated
Aug 7
New Moon
Aug 14
First Quarter
Aug 20
Full
Aug 28
Last Quarter
Sep 5
New

Hourly Weather History & Observations

Time (MDT) Temp. Dew Point Humidity Pressure Visibility Wind Dir Wind Speed Gust Speed Precip Events Conditions
12:15 AM 57.2 °F 35.6 °F 44% 30.28 in 10.0 mi North 12.7 mph - N/A   Overcast
12:35 AM 55.4 °F 35.6 °F 47% 30.28 in 10.0 mi North 12.7 mph - N/A   Overcast
12:55 AM 55.4 °F 35.6 °F 47% 30.28 in 10.0 mi North 10.4 mph - N/A   Overcast
1:15 AM 55.4 °F 37.4 °F 51% 30.27 in 10.0 mi North 13.8 mph - N/A   Overcast
1:35 AM 55.4 °F 37.4 °F 51% 30.27 in 10.0 mi North 13.8 mph - N/A   Overcast
1:55 AM 55.4 °F 37.4 °F 51% 30.26 in 10.0 mi NNW 15.0 mph - N/A   Overcast
2:15 AM 53.6 °F 37.4 °F 54% 30.26 in 10.0 mi NNW 15.0 mph - N/A   Overcast
2:35 AM 53.6 °F 37.4 °F 54% 30.25 in 10.0 mi NNW 15.0 mph - N/A   Overcast
2:55 AM 53.6 °F 37.4 °F 54% 30.25 in 10.0 mi NNW 15.0 mph - N/A   Overcast
3:15 AM 53.6 °F 37.4 °F 54% 30.25 in 10.0 mi NNW 16.1 mph - N/A   Overcast
3:35 AM 53.6 °F 37.4 °F 54% 30.25 in 10.0 mi NNW 13.8 mph - N/A   Overcast
3:55 AM 53.6 °F 37.4 °F 54% 30.25 in 10.0 mi NNW 15.0 mph - N/A   Overcast
4:15 AM 53.6 °F 37.4 °F 54% 30.25 in 10.0 mi NNW 15.0 mph - N/A   Overcast
4:35 AM 53.6 °F 37.4 °F 54% 30.25 in 10.0 mi NNW 15.0 mph - N/A   Overcast
4:55 AM 53.6 °F 37.4 °F 54% 30.24 in 10.0 mi NNW 16.1 mph - N/A   Overcast
5:15 AM 53.6 °F 37.4 °F 54% 30.24 in 10.0 mi NNW 15.0 mph - N/A   Overcast
5:35 AM 53.6 °F 39.2 °F 58% 30.25 in 10.0 mi NNW 11.5 mph - N/A   Overcast
5:55 AM 53.6 °F 37.4 °F 54% 30.24 in 10.0 mi NNW 13.8 mph - N/A   Overcast
6:15 AM 53.6 °F 37.4 °F 54% 30.25 in 10.0 mi NNW 11.5 mph - N/A   Overcast
6:35 AM 53.6 °F 39.2 °F 58% 30.24 in 10.0 mi NNW 11.5 mph - N/A   Overcast
6:55 AM 53.6 °F 37.4 °F 54% 30.23 in 10.0 mi NNW 11.5 mph - N/A   Overcast
7:15 AM 55.4 °F 39.2 °F 54% 30.24 in 10.0 mi NNW 8.1 mph - N/A   Overcast
7:35 AM 57.2 °F 39.2 °F 51% 30.24 in 10.0 mi North 6.9 mph - N/A   Overcast
7:55 AM 60.8 °F 37.4 °F 42% 30.25 in 10.0 mi NE 4.6 mph - N/A   Overcast
8:15 AM 60.8 °F 39.2 °F 45% 30.25 in 10.0 mi NNE 3.5 mph - N/A   Overcast
8:35 AM 60.8 °F 39.2 °F 45% 30.25 in 10.0 mi NE 3.5 mph - N/A   Overcast
8:55 AM 62.6 °F 35.6 °F 37% 30.25 in 10.0 mi SSE 4.6 mph - N/A   Overcast
9:15 AM 62.6 °F 39.2 °F 42% 30.25 in 10.0 mi SE 6.9 mph - N/A   Overcast
9:35 AM 64.4 °F 37.4 °F 37% 30.25 in 10.0 mi South 5.8 mph - N/A   Overcast
9:55 AM 64.4 °F 37.4 °F 37% 30.25 in 10.0 mi SSW 5.8 mph - N/A   Overcast
10:15 AM 66.2 °F 37.4 °F 35% 30.25 in 10.0 mi South 8.1 mph - N/A   Overcast
10:35 AM 68.0 °F 37.4 °F 33% 30.25 in 10.0 mi SSW 6.9 mph - N/A   Overcast
10:55 AM 68.0 °F 32.0 °F 26% 30.25 in 10.0 mi SSW 8.1 mph 16.1 mph N/A   Overcast
11:15 AM 69.8 °F 30.2 °F 23% 30.25 in 10.0 mi SSW 8.1 mph - N/A   Overcast
11:35 AM 69.8 °F 28.4 °F 21% 30.23 in 10.0 mi SSW 11.5 mph 19.6 mph N/A   Overcast
11:55 AM 71.6 °F 26.6 °F 19% 30.23 in 10.0 mi SSW 15.0 mph 20.7 mph N/A   Overcast
12:15 PM 71.6 °F 26.6 °F 19% 30.23 in 10.0 mi SW 11.5 mph 19.6 mph N/A   Overcast
12:35 PM 71.6 °F 21.2 °F 15% 30.21 in 10.0 mi SW 10.4 mph 20.7 mph N/A   Overcast
12:55 PM 71.6 °F 21.2 °F 15% 30.22 in 10.0 mi SW 10.4 mph 18.4 mph N/A   Overcast
1:15 PM 73.4 °F 21.2 °F 14% 30.21 in 10.0 mi SW 9.2 mph 21.9 mph N/A   Overcast
1:35 PM 73.4 °F 19.4 °F 13% 30.20 in 10.0 mi SW 13.8 mph 20.7 mph N/A   Overcast
1:55 PM 77.0 °F 19.4 °F 12% 30.20 in 10.0 mi WSW 15.0 mph 20.7 mph N/A   Overcast
2:15 PM 73.4 °F 28.4 °F 19% 30.20 in 10.0 mi NNW 11.5 mph 21.9 mph N/A   Overcast
2:35 PM 71.6 °F 32.0 °F 23% 30.20 in 10.0 mi North 10.4 mph 17.3 mph N/A   Overcast
2:55 PM 73.4 °F 32.0 °F 22% 30.19 in 10.0 mi ENE 11.5 mph - N/A   Overcast
3:15 PM 71.6 °F 32.0 °F 23% 30.18 in 10.0 mi NNE 9.2 mph 16.1 mph N/A   Overcast
3:35 PM 71.6 °F 30.2 °F 22% 30.18 in 10.0 mi NE 8.1 mph - N/A   Overcast
3:55 PM 71.6 °F 26.6 °F 19% 30.18 in 10.0 mi East 8.1 mph - N/A   Overcast
4:15 PM 71.6 °F 26.6 °F 19% 30.17 in 10.0 mi ENE 5.8 mph - N/A   Overcast
4:35 PM 73.4 °F 26.6 °F 18% 30.17 in 10.0 mi East 5.8 mph - N/A   Overcast
4:55 PM 71.6 °F 24.8 °F 17% 30.16 in 10.0 mi ENE 6.9 mph - N/A   Overcast
5:15 PM 71.6 °F 26.6 °F 19% 30.16 in 10.0 mi NE 11.5 mph 16.1 mph N/A   Overcast
5:35 PM 71.6 °F 26.6 °F 19% 30.16 in 10.0 mi NNE 9.2 mph - N/A   Overcast
5:55 PM 71.6 °F 23.0 °F 16% 30.16 in 10.0 mi North 4.6 mph - N/A   Overcast
6:15 PM 71.6 °F 24.8 °F 17% 30.16 in 10.0 mi NNE 4.6 mph - N/A   Overcast
6:35 PM 71.6 °F 23.0 °F 16% 30.16 in 10.0 mi East 6.9 mph - N/A   Overcast
6:55 PM 71.6 °F 23.0 °F 16% 30.16 in 10.0 mi NNE 8.1 mph - N/A   Overcast
7:15 PM 69.8 °F 23.0 °F 17% 30.16 in 10.0 mi NE 4.6 mph - N/A   Overcast
7:35 PM 69.8 °F 24.8 °F 18% 30.17 in 10.0 mi North 9.2 mph - N/A   Overcast
7:55 PM 68.0 °F 24.8 °F 20% 30.18 in 10.0 mi NNW 6.9 mph - N/A   Overcast
8:15 PM 68.0 °F 26.6 °F 21% 30.18 in 10.0 mi NNW 12.7 mph - N/A   Overcast
8:35 PM 64.4 °F 28.4 °F 26% 30.20 in 10.0 mi NE 10.4 mph 24.2 mph N/A   Overcast
8:55 PM 66.2 °F 26.6 °F 23% 30.20 in 10.0 mi ENE 6.9 mph - N/A   Overcast
9:15 PM 64.4 °F 28.4 °F 26% 30.21 in 10.0 mi North 10.4 mph 20.7 mph N/A   Overcast
9:35 PM 62.6 °F 30.2 °F 30% 30.21 in 10.0 mi North 9.2 mph - N/A   Overcast
9:55 PM 62.6 °F 32.0 °F 32% 30.21 in 10.0 mi North 16.1 mph - N/A   Overcast
10:15 PM 60.8 °F 30.2 °F 31% 30.21 in 10.0 mi North 15.0 mph 19.6 mph N/A   Overcast
10:35 PM 60.8 °F 30.2 °F 31% 30.22 in 10.0 mi North 12.7 mph - N/A   Overcast
10:55 PM 60.8 °F 30.2 °F 31% 30.21 in 10.0 mi North 12.7 mph - N/A   Overcast
11:15 PM 60.8 °F 30.2 °F 31% 30.21 in 10.0 mi North 16.1 mph - N/A   Overcast
11:35 PM 60.8 °F 32.0 °F 34% 30.21 in 10.0 mi NNW 19.6 mph 24.2 mph N/A   Overcast
11:55 PM 60.8 °F 32.0 °F 34% 30.21 in 10.0 mi North 20.7 mph 26.5 mph N/A   Overcast